{"data":{"norad_id":62680,"epoch":"2026-05-25T03:11:01.832640Z","epoch_age_seconds":63505,"freshness":"FRESH","line1":"1 62680U 25009BZ  26145.13266010  .00037362  00000+0  13249-2 0  9996","line2":"2 62680  97.4012 226.9508 0006154  62.8139 297.3727 15.28966561133018","mean_motion":15.28966561,"eccentricity":0.0006154,"inclination_deg":97.4012,"raan_deg":226.9508,"arg_perigee_deg":62.8139,"mean_anomaly_deg":297.3727,"bstar":0.0013249,"rev_number":13301,"period_min":94.1812618229,"perigee_km":474.68055074779,"apogee_km":483.12019234469,"semimajor_km":6857.0373715462,"source":"CELESTRAK","updated_at":"2026-05-25T13:38:13.343345Z"}}